EW1845 Weather Reports


Display with metric or nautical units.
time (UTC)temp
F
wind
direction
speed
MPH
gust
MPH
rain 1hr
in
rain 24hr
in
rain mn
in
humidity
%
barometer
mb
20260901015651 70 141 0.0 0.0 0.00 0.00 0.00 71 1011.2
20260901014708 71 267 1.0 0.0 0.00 0.00 0.00 72 1011.2
20260901014502 71 202 0.0 5.0 0.00 0.00 0.00 71 1011.3
20260901013728 72 142 0.0 5.0 0.00 0.00 0.00 69 1011.2
20260901013110 71 212 0.0 6.0 0.00 0.00 0.00 68 1011.2
20260901012716 72 233 2.0 5.0 0.00 0.00 0.00 66 1011.2
20260901011707 73 251 1.0 4.0 0.00 0.00 0.00 65 1011.2
20260901011503 73 208 1.0 4.0 0.00 0.00 0.00 66 1011.3
20260901010717 74 239 2.0 5.0 0.00 0.00 0.00 64 1011.2
20260901010002 73 266 3.0 6.0 0.00 0.00 0.00 63 1011.3
20260901005646 74 299 1.0 8.0 0.00 0.00 0.00 62 1011.2
20260901004613 75 285 1.0 8.0 0.00 0.00 0.00 60 1011.2
20260901004604 74 219 0.0 9.0 0.00 0.00 0.00 60 1011.2
20260901003555 75 211 3.0 8.0 0.00 0.00 0.00 60 1011.2
20260901003002 75 179 3.0 9.0 0.00 0.00 0.00 58 1011.3
20260901002522 76 207 2.0 8.0 0.00 0.00 0.00 58 1011.2
20260901001613 75 111 1.0 6.0 0.00 0.00 0.00 60 1011.3
20260901001507 76 158 2.0 7.0 0.00 0.00 0.00 60 1011.3
20260901000501 77 205 3.0 8.0 0.00 0.00 0.00 57 1011.4
20260901000113 76 187 3.0 9.0 0.00 0.00 0.00 57 1011.4
20260831234503 78 157 4.0 8.0 0.00 0.00 0.00 52 1011.4
20260831234316 79 200 3.0 6.0 0.00 0.00 0.00 50 1011.3
20260831233321 80 163 2.0 5.0 0.00 0.00 0.00 52 1011.1
20260831233103 79 219 2.0 6.0 0.00 0.00 0.00 51 1011.3
20260831232332 80 212 2.0 7.0 0.00 0.00 0.00 51 1011.2
20260831231503 80 173 2.0 7.0 0.00 0.00 0.00 52 1011.1
20260831231325 81 120 2.0 7.0 0.00 0.00 0.00 52 1011.2
20260831230339 80 255 2.0 9.0 0.00 0.00 0.00 53 1011.4
20260831230001 80 223 1.0 6.0 0.00 0.00 0.00 53 1011.4
20260831225337 80 229 3.0 9.0 0.00 0.00 0.00 55 1011.3
20260831224603 79 237 5.0 9.0 0.00 0.00 0.00 57 1011.4
20260831224308 79 163 4.0 8.0 0.00 0.00 0.00 58 1011.4
20260831223245 80 240 3.0 12.0 0.00 0.00 0.00 60 1011.5
20260831223003 79 198 4.0 12.0 0.00 0.00 0.00 60 1011.5
20260831222235 79 223 4.0 12.0 0.00 0.00 0.00 64 1011.6
20260831221604 79 197 4.0 10.0 0.00 0.00 0.00 62 1011.7
20260831221219 80 193 4.0 9.0 0.00 0.00 0.00 62 1011.7
20260831220232 81 275 4.0 9.0 0.00 0.00 0.00 61 1011.7
20260831220116 81 281 5.0 11.0 0.00 0.00 0.00 61 1011.8
20260831215223 82 160 2.0 9.0 0.00 0.00 0.00 60 1011.9
20260831214503 80 131 2.0 10.0 0.00 0.00 0.00 63 1012.0
20260831214213 81 238 3.0 9.0 0.00 0.00 0.00 61 1011.8
20260831213220 81 229 3.0 9.0 0.00 0.00 0.00 62 1011.9
20260831213102 80 233 3.0 10.0 0.00 0.00 0.00 62 1012.0
20260831212159 81 236 3.0 7.0 0.00 0.00 0.00 62 1012.0
20260831211504 81 228 3.0 8.0 0.00 0.00 0.00 62 1012.3
20260831211141 81 249 3.0 8.0 0.00 0.00 0.00 63 1012.3
20260831210131 81 232 4.0 9.0 0.00 0.00 0.00 62 1012.1
20260831210003 80 200 4.0 9.0 0.00 0.00 0.00 64 1012.1
20260831205117 81 273 5.0 11.0 0.00 0.00 0.00 62 1012.1
20260831204602 80 191 4.0 12.0 0.00 0.00 0.00 62 1012.1
20260831204116 81 236 4.0 11.0 0.00 0.00 0.00 62 1012.1
20260831203132 81 207 3.0 8.0 0.00 0.00 0.00 62 1012.1
20260831203002 81 148 5.0 9.0 0.00 0.00 0.00 61 1012.1
20260831202145 81 243 3.0 8.0 0.00 0.00 0.00 62 1012.1
20260831201141 81 278 3.0 10.0 0.00 0.00 0.00 64 1012.2
20260831200201 81 240 4.0 10.0 0.00 0.00 0.00 64 1012.2
20260831200103 80 199 5.0 11.0 0.00 0.00 0.00 65 1012.2
20260831195154 81 165 4.0 10.0 0.00 0.00 0.00 65 1012.2
20260831194502 80 122 6.0 11.0 0.00 0.00 0.00 64 1012.4
20260831194201 81 273 4.0 10.0 0.00 0.00 0.00 64 1012.4
20260831193102 81 263 4.0 10.0 0.00 0.00 0.00 64 1012.5
20260831192001 81 181 4.0 11.0 0.00 0.00 0.00 64 1012.5
20260831191502 81 212 3.0 12.0 0.00 0.00 0.00 65 1012.6
20260831190953 81 239 3.0 11.0 0.00 0.00 0.00 63 1012.4
20260831190005 81 250 5.0 11.0 0.00 0.00 0.00 63 1012.6
20260831185949 81 232 3.0 9.0 0.00 0.00 0.00 63 1012.6
20260831184952 81 122 2.0 9.0 0.00 0.00 0.00 64 1012.5
20260831184632 80 155 5.0 10.0 0.00 0.00 0.00 65 1012.6
20260831184015 80 134 2.0 7.0 0.00 0.00 0.00 66 1012.5
20260831183004 79 198 2.0 8.0 0.00 0.00 0.00 65 1012.7
20260831182956 80 193 3.0 8.0 0.00 0.00 0.00 65 1012.7
20260831181937 80 192 2.0 8.0 0.00 0.00 0.00 66 1012.6
20260831181603 79 281 1.0 5.0 0.00 0.00 0.00 67 1012.8
20260831180916 79 155 2.0 8.0 0.00 0.00 0.00 67 1012.8
20260831174504 77 195 1.0 6.0 0.00 0.00 0.00 70 1012.8
20260831173641 77 224 2.0 7.0 0.00 0.00 0.00 71 1012.8
20260831173107 76 243 1.0 8.0 0.00 0.00 0.00 71 1012.9
20260831172620 77 221 3.0 7.0 0.00 0.00 0.00 71 1012.7
20260831171633 76 219 2.0 5.0 0.00 0.00 0.00 73 1012.7
20260831171502 76 192 3.0 6.0 0.00 0.00 0.00 71 1012.8
20260831170617 76 193 1.0 7.0 0.00 0.00 0.00 72 1012.7
20260831170002 75 148 1.0 8.0 0.00 0.00 0.00 73 1012.7
20260831165553 75 214 1.0 7.0 0.00 0.00 0.00 74 1012.7
20260831164603 75 212 2.0 5.0 0.00 0.00 0.00 73 1012.6
20260831164518 75 203 0.0 4.0 0.00 0.00 0.00 73 1012.6
20260831163508 74 238 1.0 4.0 0.00 0.00 0.00 77 1012.6
20260831163004 73 150 2.0 6.0 0.00 0.00 0.00 77 1012.5
20260831161606 72 162 2.0 8.0 0.00 0.00 0.00 79 1012.5
20260831161430 72 236 2.0 7.0 0.00 0.00 0.00 79 1012.4
20260831160103 71 23 1.0 3.0 0.00 0.00 0.00 81 1012.5
20260831155356 70 8 0.0 1.0 0.00 0.00 0.00 82 1012.5
20260831154503 69 196 0.0 4.0 0.00 0.00 0.00 84 1012.5
20260831153217 69 191 0.0 4.0 0.00 0.00 0.00 84 1012.2
20260831153102 68 141 2.0 5.0 0.00 0.00 0.00 84 1012.3
20260831151503 68 49 0.0 2.0 0.00 0.00 0.00 86 1012.4
20260831151128 68 148 0.0 0.0 0.00 0.00 0.00 86 1012.3
20260831150100 68 172 0.0 0.0 0.00 0.00 0.00 87 1012.3
20260831150006 67 40 0.0 1.0 0.00 0.00 0.00 87 1012.3
20260831145043 67 41 0.0 0.0 0.00 0.00 0.00 88 1012.2
20260831144633 67 41 0.0 2.0 0.00 0.00 0.00 88 1012.2
20260831144108 67 43 0.0 1.0 0.00 0.00 0.00 88 1012.1
20260831143108 66 26 0.0 1.0 0.00 0.00 0.00 90 1012.0
20260831143004 66 28 0.0 2.0 0.00 0.00 0.00 89 1012.0
20260831142123 66 349 0.0 0.0 0.00 0.00 0.00 90 1011.8
20260831141602 65 350 0.0 0.0 0.00 0.00 0.00 90 1011.8
20260831140028 64 349 0.0 0.0 0.00 0.00 0.00 90 1011.6
20260831135035 64 349 0.0 0.0 0.00 0.00 0.00 89 1011.5
20260831134503 64 350 0.0 1.0 0.00 0.00 0.00 89 1011.3
20260831134036 64 350 0.0 0.0 0.00 0.00 0.00 88 1011.3
20260831133102 64 349 0.0 1.0 0.00 0.00 0.00 88 1011.2
20260831131823 65 349 0.0 0.0 0.00 0.00 0.00 87 1011.2
20260831131503 64 349 0.0 1.0 0.00 0.00 0.00 88 1011.2
20260831130803 64 349 0.0 0.0 0.00 0.00 0.00 87 1011.1
20260831130004 64 349 0.0 0.0 0.00 0.00 0.00 87 1011.2
20260831124605 64 350 0.0 0.0 0.00 0.00 0.00 86 1011.1
20260831123615 64 349 0.0 0.0 0.00 0.00 0.00 86 1011.0
20260831123002 63 33 0.0 1.0 0.00 0.00 0.00 86 1011.0
20260831122627 64 34 0.0 0.0 0.00 0.00 0.00 85 1011.0
20260831121555 64 34 0.0 0.0 0.00 0.00 0.00 85 1010.9
20260831120559 64 34 0.0 0.0 0.00 0.00 0.00 86 1010.9
20260831115535 64 34 0.0 0.0 0.00 0.00 0.00 85 1010.9
20260831114552 64 34 0.0 0.0 0.00 0.00 0.00 86 1011.0
20260831114503 64 34 0.0 1.0 0.00 0.00 0.00 86 1011.0
20260831113538 64 34 0.0 0.0 0.00 0.00 0.00 87 1011.0
20260831112603 64 35 0.0 0.0 0.00 0.00 0.00 87 1011.0
20260831111503 64 35 0.0 0.0 0.00 0.00 0.00 88 1010.9
20260831110438 64 34 0.0 0.0 0.00 0.00 0.00 89 1010.9
20260831110003 63 35 0.0 1.0 0.00 0.00 0.00 88 1011.0
20260831105456 64 35 0.0 0.0 0.00 0.00 0.00 88 1010.9
20260831104602 64 35 1.0 1.0 0.00 0.00 0.00 88 1011.0
20260831103302 65 35 0.0 0.0 0.00 0.00 0.00 89 1011.1
20260831103002 64 35 0.0 0.0 0.00 0.00 0.00 89 1011.1
20260831102238 64 35 0.0 0.0 0.00 0.00 0.00 89 1011.2
20260831101610 64 35 0.0 1.0 0.00 0.00 0.00 89 1011.1
20260831101244 64 34 0.0 0.0 0.00 0.00 0.00 89 1011.0
20260831100248 64 35 0.0 0.0 0.00 0.00 0.00 87 1011.1
20260831100108 64 35 0.0 0.0 0.00 0.00 0.00 87 1011.1
20260831095216 65 35 0.0 0.0 0.00 0.00 0.00 88 1011.1
20260831094503 64 35 0.0 1.0 0.00 0.00 0.00 87 1011.1
20260831094215 65 35 0.0 0.0 0.00 0.00 0.00 87 1011.0
20260831093224 65 35 0.0 2.0 0.00 0.00 0.00 87 1011.0
20260831093102 64 35 1.0 3.0 0.00 0.00 0.00 87 1011.0
20260831091503 65 27 0.0 1.0 0.00 0.00 0.00 86 1011.1
20260831091111 65 27 0.0 0.0 0.00 0.00 0.00 86 1011.0
20260831090120 66 62 0.0 0.0 0.00 0.00 0.00 84 1011.0
20260831090003 65 62 0.0 1.0 0.00 0.00 0.00 84 1011.0
20260831085103 66 63 0.0 0.0 0.00 0.00 0.00 84 1011.1
20260831084606 65 65 0.0 2.0 0.00 0.00 0.00 83 1011.1
20260831084038 66 33 0.0 1.0 0.00 0.00 0.00 83 1011.0
20260831083043 66 34 0.0 0.0 0.00 0.00 0.00 83 1011.0
20260831083003 66 34 0.0 2.0 0.00 0.00 0.00 84 1011.0
20260831082047 66 34 0.0 1.0 0.00 0.00 0.00 84 1010.9
20260831081634 66 34 0.0 1.0 0.00 0.00 0.00 84 1011.0
20260831081102 66 34 0.0 0.0 0.00 0.00 0.00 84 1011.0
20260831080125 66 46 0.0 1.0 0.00 0.00 0.00 84 1011.0
20260831075144 67 46 0.0 0.0 0.00 0.00 0.00 84 1011.1
20260831074511 66 46 0.0 4.0 0.00 0.00 0.00 85 1010.9
20260831074131 67 35 0.0 3.0 0.00 0.00 0.00 85 1010.8
20260831073200 65 43 0.0 2.0 0.00 0.00 0.00 86 1010.8
20260831073116 66 44 0.0 1.0 0.00 0.00 0.00 86 1010.7
20260831072129 66 50 0.0 0.0 0.00 0.00 0.00 84 1010.7
20260831071502 65 50 0.0 1.0 0.00 0.00 0.00 84 1010.7
20260831071150 66 50 0.0 0.0 0.00 0.00 0.00 85 1010.6
20260831070154 66 50 0.0 0.0 0.00 0.00 0.00 84 1010.9
20260831070002 66 50 0.0 1.0 0.00 0.00 0.00 84 1010.8
20260831065210 66 49 0.0 1.0 0.00 0.00 0.00 85 1010.8
20260831064609 65 74 0.0 1.0 0.00 0.00 0.00 84 1010.9
20260831063004 66 77 0.0 1.0 0.00 0.00 0.00 84 1010.9
20260831061602 66 77 0.0 0.0 0.00 0.00 0.00 84 1010.9
20260831060853 67 77 0.0 0.0 0.00 0.00 0.00 83 1010.8
20260831060114 66 77 0.0 0.0 0.00 0.00 0.00 83 1010.6
20260831054729 67 77 0.0 0.0 0.00 0.00 0.00 83 1010.6
20260831054502 67 77 0.0 1.0 0.00 0.00 0.00 83 1010.7
20260831053745 67 77 0.0 0.0 0.00 0.00 0.00 82 1010.9
20260831053102 67 94 0.0 1.0 0.00 0.00 0.00 82 1010.9
20260831052731 67 150 0.0 0.0 0.00 0.00 0.00 82 1010.9
20260831051502 67 150 0.0 0.0 0.00 0.00 0.00 81 1010.7
20260831050528 68 150 0.0 0.0 0.00 0.00 0.00 81 1010.6
20260831050004 67 150 0.0 0.0 0.00 0.00 0.00 81 1010.6
20260831045549 68 150 0.0 0.0 0.00 0.00 0.00 80 1010.5
20260831044604 68 150 0.0 0.0 0.00 0.00 0.00 79 1010.6
20260831044556 68 150 0.0 0.0 0.00 0.00 0.00 79 1010.6
20260831043002 68 154 0.0 2.0 0.00 0.00 0.00 80 1010.6
20260831042436 69 157 0.0 0.0 0.00 0.00 0.00 78 1010.4
20260831041608 68 157 0.0 0.0 0.00 0.00 0.00 79 1010.4
20260831041434 69 157 0.0 0.0 0.00 0.00 0.00 78 1010.3
20260831040417 69 157 0.0 0.0 0.00 0.00 0.00 77 1010.1
20260831040105 69 157 0.0 0.0 0.00 0.00 0.00 77 1010.2
20260831035431 69 157 0.0 0.0 0.00 0.00 0.00 76 1010.0
20260831034503 69 157 0.0 0.0 0.00 0.00 0.00 76 1009.9
20260831034455 70 157 0.0 0.0 0.00 0.00 0.00 76 1009.9
20260831033432 70 157 0.0 0.0 0.00 0.00 0.00 75 1009.7
20260831033103 70 157 0.0 0.0 0.00 0.00 0.00 75 1009.7
20260831032401 70 157 0.0 0.0 0.00 0.00 0.00 74 1009.6
20260831031503 70 157 0.0 0.0 0.00 0.00 0.00 74 1009.7
20260831031335 71 157 0.0 0.0 0.00 0.00 0.00 74 1009.6
20260831030348 71 157 0.0 0.0 0.00 0.00 0.00 73 1009.4
20260831030008 71 157 0.0 0.0 0.00 0.00 0.00 72 1009.4
20260831025355 72 157 0.0 0.0 0.00 0.00 0.00 72 1009.4
20260831024602 72 157 0.0 0.0 0.00 0.00 0.00 71 1009.3
20260831024348 73 157 0.0 0.0 0.00 0.00 0.00 71 1009.3
20260831023355 73 157 0.0 0.0 0.00 0.00 0.00 70 1009.3
20260831023002 73 217 0.0 2.0 0.00 0.00 0.00 70 1009.3
20260831022404 73 202 0.0 0.0 0.00 0.00 0.00 69 1009.3
20260831021331 74 161 0.0 0.0 0.00 0.00 0.00 69 1009.2
20260831020103 74 221 0.0 1.0 0.00 0.00 0.00 69 1009.3